Tracking 19832 objects as of 25-Aug-2019
HD Live streaming from Space Station
objects crossing your sky now

FENGYUN 1C DEB

Track FENGYUN 1C DEB now!
10-day predictions


NORAD ID: 32245
Int'l Code: 1999-025CWT
Perigee: 631.6 km
Apogee: 852.6 km
Inclination: 98.5 °
Period: 99.5 minutes
Semi major axis: 7113 km
RCS: 0.0014 m2 (small)
Launch date: May 10, 1999
Source: People's Republic of China (PRC)
Launch site: Taiyaun Space Center, China (TSC)

Note: This is SATELLITE DEBRIS
aabbcc
Your satellite tracking list
Your tracking list is empty




NASA's NSSDC Master Catalog

Two Line Element Set (TLE):
1 32245U 99025CWT 19235.74937440 +.00000365 +00000-0 +98443-4 0  9995
2 32245 098.5039 337.6647 0155362 190.3129 169.4865 14.47153159326218
Source of the keplerian elements: AFSPC